Regional Weather Roundup
Issued by NWS

Home | Current Version | Previous Version | Graphics & Text | Print | Product List | Glossary On
Versions: 1 2 3 4 5 6 7 8 9 10 11 12 13 14 15 16 17 18 19 20 21 22 23 24 25 26 27 28 29 30 31 32 33 34 35 36 37 38 39 40 41 42 43 44 45 46 47 48 49 50
000
ASUS43 KLMK 251102
RWRKY
KENTUCKY REGIONAL WEATHER ROUNDUP
NATIONAL WEATHER SERVICE LOUISVILLE KY
600 AM EST THU DEC 25 2014

NOTE "FAIR" INDICATES FEW OR NO CLOUDS BELOW 12,000 FEET
WITH NO SIGNIFICANT WEATHER AND/OR OBSTRUCTIONS TO VISIBILITY.

KYZ001>023-026-027-061>063-070>075-251200-
WESTERN AND SOUTH CENTRAL KENTUCKY

CITY           SKY/WX    TMP DP  RH WIND       PRES   REMARKS
PADUCAH        CLOUDY    39  31  72 W7        30.03R WCI  34
HENDERSON      CLOUDY    39  32  75 SW8       30.02R WCI  34
OWENSBORO      CLOUDY    39  33  79 W7        30.02R WCI  34
HOPKINSVILLE   CLOUDY    39  35  84 W10       30.05R WCI  32
BOWLING GREEN  CLOUDY    39  34  82 W5        30.05R
GLASGOW        NOT AVBL
$$

KYZ024-025-028>034-038-045-046-053-251200-
NORTH CENTRAL KENTUCKY

CITY           SKY/WX    TMP DP  RH WIND       PRES   REMARKS
LOUISVILLE/SDF CLOUDY    39  32  76 W16G23    29.99R WCI  30
LOUISVILLE/LOU CLOUDY    38  33  82 SW8       29.99R WCI  32
FORT KNOX      CLOUDY    38  32  80 W8        29.98R WCI  32
$$

KYZ035>037-039>044-047>052-055>060-089>105-251200-
NORTHEAST KENTUCKY

CITY           SKY/WX    TMP DP  RH WIND       PRES   REMARKS
LEXINGTON      CLOUDY    37  33  85 W13       29.98R WCI  29
COVINGTON      NOT AVBL
FRANKFORT      CLOUDY    38  34  85 SW8       29.97R WCI  32
$$

KYZ054-064>069-076>088-106>120-251200-
SOUTHEAST KENTUCKY

CITY           SKY/WX    TMP DP  RH WIND       PRES   REMARKS
JACKSON        CLOUDY    39  32  76 VRB5      29.96R
LONDON         CLOUDY    40  33  76 W7        30.00R
SOMERSET       NOT AVBL
MIDDLESBORO    NOT AVBL
MONTICELLO     CLOUDY    40  36  86 W9        30.05R WCI  34
$$



USA.gov is the U.S. government's official web portal to all federal, state and local government web resources and services.